GFSNIL_925_spd_120.txt.gz
Wind_Speed
22 21 20 20 19 18 17 15 16 18 21 21 24 29 24 24 22 24 24 22 22 26
12 17 18 15 17 17 17 15 15 18 18 19 25 24 23 22 24 25 21 15 14 16
3 5 15 17 15 14 11 12 10 10 16 16 14 14 15 16 15 16 15 15 15 15
21 19 26 23 25 22 21 19 14 8 8 9 7 8 10 11 11 14 15 14 16 18
26 27 30 29 26 23 22 19 17 16 15 14 13 11 10 8 6 4 3 1 4 6
26 25 26 25 22 21 20 17 15 15 14 14 14 13 11 9 8 7 6 5 6 7
20 16 19 18 17 16 15 14 15 14 13 13 12 12 10 9 8 7 7 7 7 7
14 12 13 14 13 13 14 13 12 12 13 12 13 12 9 7 7 7 7 7 8 8
10 10 11 11 11 12 12 12 12 12 12 12 12 11 11 8 8 8 7 9 9 10
8 9 10 10 11 11 12 11 12 11 10 10 10 12 12 10 7 7 8 9 10 12
8 8 9 8 9 9 9 9 8 9 8 8 9 9 10 10 8 6 7 8 10 11
5 6 6 7 7 8 8 8 7 5 7 6 6 9 10 9 7 8 9 9 10 12
4 3 5 7 7 6 5 4 4 4 4 5 5 7 8 10 7 8 10 11 12 12
1 4 4 3 3 3 2 2 3 2 2 3 5 4 6 8 8 11 12 14 16 17

GFSNIL_925_spd_126.txt.gz
Wind_Speed
23 26 26 23 23 23 21 19 20 18 21 19 18 19 20 21 23 25 26 27 27 23
16 14 18 20 19 19 19 16 16 15 16 17 18 19 20 22 25 25 27 29 28 26
2 5 8 14 18 16 17 12 13 14 16 9 13 16 19 22 23 23 26 20 16 17
10 4 4 3 2 10 9 7 6 7 9 9 8 13 16 13 17 24 20 15 13 11
18 17 15 14 11 8 11 9 8 9 10 11 11 10 11 11 10 12 13 11 9 7
21 18 24 22 20 15 22 21 18 16 17 16 17 16 13 17 14 13 12 13 11 9
14 16 19 18 14 17 18 16 17 11 10 13 12 10 15 13 13 12 13 12 9 8
11 11 11 12 11 12 15 15 13 11 12 11 10 9 10 10 11 10 10 10 9 10
6 7 8 9 10 10 10 11 10 10 9 10 11 10 10 9 9 8 8 8 8 9
5 6 8 8 9 9 10 10 10 9 8 9 9 10 9 9 8 8 8 8 8 6
3 5 6 8 8 7 7 8 7 7 5 6 7 8 8 8 6 7 6 4 4 6
3 4 4 5 5 6 5 6 6 5 4 3 5 6 6 6 5 4 6 6 6 7
5 4 5 5 4 5 4 4 4 3 2 3 2 4 5 5 6 4 5 4 4 3
6 5 4 4 3 3 2 2 2 1 1 2 2 4 5 2 3 4 5 7 6 7

GFSNIL_925_spd_129.txt.gz
Wind_Speed
17 18 20 22 21 22 26 27 24 25 23 24 21 22 23 24 25 26 25 25 26 25
4 7 7 14 20 19 17 19 19 17 15 15 14 16 21 23 22 24 24 25 27 26
8 6 6 7 9 12 14 16 13 14 14 13 11 14 15 20 21 23 26 25 25 25
8 6 4 5 4 5 9 12 9 4 2 3 8 13 13 16 22 24 22 22 22 12
13 12 10 5 3 4 6 8 7 5 6 7 5 3 4 5 4 8 8 10 9 13
18 18 17 15 10 12 12 14 12 12 14 12 10 10 10 11 13 9 13 10 11 9
13 13 13 13 13 13 12 15 18 15 14 16 12 11 11 11 16 9 10 11 11 10
7 8 10 10 9 11 11 12 13 13 13 13 10 9 7 13 11 9 11 11 11 12
5 5 7 7 9 9 10 11 12 13 14 14 12 8 10 8 8 7 9 11 11 8
2 3 5 4 5 8 9 8 10 12 11 11 10 9 8 8 8 8 8 7 6 6
1 1 2 3 4 5 5 6 6 6 6 7 8 8 7 7 6 7 6 6 5 5
4 3 3 3 3 3 3 4 4 3 2 4 6 6 5 3 4 4 5 5 6 6
10 10 9 7 6 5 5 4 4 3 1 1 1 3 4 2 3 3 5 4 5 3
15 14 12 11 11 10 9 7 6 4 4 3 2 2 4 4 4 5 6 8 8 8

GFSNIL_925_spd_135.txt.gz
Wind_Speed
18 18 15 15 16 16 16 16 15 13 12 14 13 12 12 14 16 17 14 12 10 11
15 16 17 16 14 13 12 11 10 10 13 12 6 5 8 9 14 12 12 12 14 15
17 16 15 14 13 13 12 9 7 7 7 7 6 6 6 6 4 6 8 10 11 13
13 13 12 11 11 10 8 8 6 5 5 6 4 3 3 3 3 5 8 9 8 11
12 12 12 12 11 8 5 2 2 1 2 3 3 2 3 4 6 4 2 1 4 3
10 10 11 12 11 9 6 4 5 5 6 6 6 6 6 5 5 5 6 7 8 8
6 6 6 8 9 9 9 10 10 11 11 11 11 10 9 7 9 11 12 12 11 11
6 6 5 4 5 6 6 7 8 8 7 8 10 9 8 8 9 9 12 14 15 15
8 6 5 4 4 4 5 6 6 7 6 7 9 6 5 7 8 10 13 14 13 12
8 7 5 3 2 0 2 3 5 6 6 7 8 5 6 7 9 11 10 10 10 11
10 8 7 6 5 4 4 3 3 4 4 5 6 6 6 7 9 10 9 8 8 9
14 13 11 10 9 8 7 6 6 5 5 5 5 5 7 7 8 9 8 7 7 6
16 15 14 11 10 10 9 8 7 7 7 6 5 4 6 7 7 7 7 7 7 4
18 17 15 14 13 11 9 9 9 8 8 8 6 6 4 5 6 6 7 6 5 3

GFSNIL_925_spd_138.txt.gz
Wind_Speed
13 15 14 14 15 14 13 14 13 12 12 12 13 14 13 12 13 14 15 16 16 17
14 15 15 15 13 13 13 13 11 8 8 9 10 7 6 8 10 12 14 13 13 11
13 13 13 13 13 12 11 11 13 11 8 7 7 7 6 5 5 5 6 7 10 8
13 13 12 12 12 12 11 7 6 8 7 6 5 4 3 3 4 3 2 3 2 1
11 12 13 14 12 10 10 7 4 4 4 5 5 5 5 6 7 7 6 5 3 4
12 12 12 13 12 11 9 6 3 3 4 5 6 6 7 7 9 9 10 9 9 9
11 11 10 10 10 9 8 7 7 7 7 8 9 9 8 8 10 11 12 12 13 12
10 9 8 8 7 7 6 6 5 5 6 7 7 7 7 10 11 12 13 14 15 15
10 9 7 5 4 4 4 4 4 5 5 7 7 6 6 7 9 11 13 14 14 12
12 10 8 6 5 3 2 2 3 3 3 5 6 5 6 6 8 10 10 10 10 10
15 13 10 8 7 5 4 3 2 2 2 3 5 4 3 4 6 7 7 6 6 7
17 15 12 11 9 8 7 6 5 4 2 1 1 1 1 2 5 6 6 6 6 6
21 19 17 14 13 12 11 10 8 7 7 6 5 4 5 6 6 6 6 8 7 4
24 23 20 17 17 15 13 11 11 10 9 8 7 6 4 5 6 6 7 7 7 6

GFSNIL_925_spd_141.txt.gz
Wind_Speed
12 11 10 11 14 14 14 14 14 14 9 8 10 13 14 15 15 16 17 19 18 16
14 14 12 13 13 14 13 12 13 13 11 8 8 9 9 9 10 10 12 14 14 15
13 13 13 12 13 13 14 12 9 9 9 7 6 8 8 6 6 5 3 3 6 6
10 11 13 14 15 15 14 13 12 9 8 8 6 4 3 2 3 5 4 4 4 5
11 11 12 14 15 13 12 10 8 6 6 6 6 6 4 3 3 5 6 6 5 6
11 10 11 12 12 12 12 10 8 7 7 7 8 7 7 6 7 7 7 7 7 8
11 9 8 8 8 9 8 8 7 8 8 9 9 8 8 8 9 10 11 12 12 11
11 9 7 6 6 6 6 6 6 5 6 7 7 6 6 6 8 9 13 13 14 13
12 10 9 7 5 5 3 2 3 4 5 5 7 5 4 4 6 9 10 12 12 11
14 13 11 10 8 8 6 4 1 0 1 3 4 3 4 5 7 8 9 9 8 8
18 17 14 13 12 11 10 8 7 5 3 2 2 2 2 4 5 5 5 5 5 5
23 21 19 19 17 15 13 12 10 8 8 6 5 5 4 4 4 5 5 5 4 4
26 24 23 21 18 16 16 14 12 12 11 10 9 9 8 7 7 7 7 7 7 4
25 27 26 23 21 19 18 16 15 15 14 13 11 10 9 10 10 10 10 10 9 7

GFSNIL_925_spd_147.txt.gz
Wind_Speed
6 7 7 7 10 12 12 12 13 12 12 13 13 12 12 13 15 17 17 17 18 19
8 8 7 8 8 9 10 10 11 12 12 12 12 10 11 11 13 14 14 14 14 14
11 9 9 8 8 10 10 10 10 9 10 10 9 9 9 10 8 10 8 8 8 10
13 11 10 10 9 9 9 9 9 7 7 8 8 8 7 8 8 7 7 7 6 6
14 12 11 11 9 8 8 7 8 6 6 7 7 7 7 7 7 7 7 7 7 8
16 15 13 12 10 9 8 7 7 6 5 5 5 5 5 5 6 6 6 6 5 7
19 17 15 13 12 11 9 8 8 7 6 6 5 4 3 3 2 2 3 4 5 6
19 17 15 16 15 13 12 11 9 9 9 7 6 5 4 2 1 1 2 5 6 8
19 18 19 17 15 15 14 13 12 11 10 8 6 8 5 5 4 3 2 3 4 3
20 20 20 17 16 16 16 14 14 12 11 10 9 9 7 7 5 5 5 4 3 2
21 21 19 19 20 19 17 16 15 14 13 11 9 11 9 8 6 6 6 5 5 4
20 20 19 21 22 20 18 17 17 16 15 15 13 14 12 10 8 8 8 7 7 6
19 21 21 22 21 19 20 19 19 17 17 17 16 16 16 15 11 11 10 10 9 11
17 20 23 21 20 21 20 18 18 18 18 18 18 18 19 19 15 13 13 12 11 10

GFSNIL_925_spd_150.txt.gz
Wind_Speed
11 11 10 11 10 11 11 12 13 12 12 11 12 13 12 11 12 14 16 16 16 16
13 13 12 11 11 12 12 12 13 13 13 11 11 11 10 10 13 12 12 11 12 12
16 15 14 13 14 12 13 14 10 12 10 11 9 8 9 10 11 11 9 10 9 10
20 18 16 16 15 14 13 12 12 9 8 11 8 7 9 8 8 9 8 7 8 8
23 20 20 19 17 15 15 13 12 9 9 10 9 8 8 7 7 7 7 8 5 6
24 23 23 21 18 17 15 14 14 12 11 10 10 9 6 5 6 5 6 6 4 4
26 27 26 22 20 19 17 15 16 14 13 13 11 9 7 7 5 7 5 3 3 3
26 26 25 24 22 20 18 17 16 15 15 14 13 10 11 8 5 6 4 2 2 3
25 26 27 27 25 23 21 20 18 17 16 14 14 14 12 9 7 9 5 4 2 1
25 27 28 27 26 26 24 21 20 20 18 18 16 15 14 11 10 10 10 9 7 5
25 26 27 26 28 28 26 26 24 23 21 20 18 18 16 13 12 12 11 10 9 7
24 25 26 28 30 31 28 27 27 26 24 23 22 21 19 17 16 15 14 13 11 11
26 24 27 30 31 32 31 32 29 28 27 26 25 23 21 20 18 17 16 15 14 14
26 24 25 27 29 30 30 30 29 30 30 30 30 27 26 25 24 23 20 20 18 17

GFSNIL_925_spd_153.txt.gz
Wind_Speed
18 17 16 15 14 13 13 13 12 12 11 11 10 10 11 10 9 12 10 12 10 11
22 20 19 17 16 15 14 14 15 14 12 10 11 8 9 9 9 9 8 8 9 11
24 22 21 19 19 16 15 14 16 13 10 9 10 7 8 9 8 10 9 9 8 8
26 24 22 22 20 18 16 15 15 13 10 9 11 8 10 10 9 9 9 8 8 7
25 24 25 25 23 19 19 16 16 14 13 11 11 10 11 11 8 8 8 9 8 8
23 25 26 26 24 22 20 19 17 15 14 12 11 11 10 9 9 9 10 9 8 8
25 25 26 26 26 24 22 22 20 18 16 14 13 13 11 10 9 10 10 8 6 5
24 24 25 27 28 27 25 24 22 20 19 18 17 16 14 13 12 11 11 9 6 4
25 25 26 28 28 28 28 27 24 24 22 21 20 18 16 16 14 12 12 10 9 8
26 28 29 29 29 31 31 29 29 27 25 25 23 20 19 18 16 16 16 15 14 12
30 27 27 29 31 33 33 32 31 31 29 27 27 23 22 20 18 19 18 17 16 14
29 30 27 28 30 32 34 34 33 33 31 31 32 27 25 24 23 22 22 20 19 18
27 25 28 30 29 30 31 34 33 34 33 32 33 30 27 26 25 25 24 22 20 19
31 27 26 24 23 25 27 29 31 32 33 32 33 33 29 28 29 30 28 26 24 23

GFSNIL_925_spd_156.txt.gz
Wind_Speed
22 22 21 19 18 17 16 15 14 12 13 14 12 12 11 11 11 10 11 10 8 8
23 24 23 21 19 19 17 16 14 13 12 11 10 11 10 10 10 10 11 12 10 9
25 24 24 22 22 21 19 17 16 15 13 9 11 9 10 9 10 12 12 12 10 9
25 24 23 25 24 23 20 19 18 16 14 12 12 10 10 10 10 10 10 9 10 10
23 22 23 25 26 24 24 21 20 18 17 15 14 13 12 12 11 10 11 10 10 10
21 22 23 24 25 25 25 24 22 21 20 19 17 16 15 14 12 12 11 10 10 8
22 23 24 24 25 25 25 27 25 24 23 21 20 19 18 16 15 14 14 13 11 9
22 24 26 26 26 25 26 28 28 26 26 24 23 23 21 19 18 17 17 15 13 11
24 26 29 30 29 27 27 28 28 29 29 28 27 26 23 22 21 20 19 19 16 14
25 29 30 28 27 27 29 29 30 30 30 31 30 28 25 23 24 23 22 21 20 18
28 27 27 26 26 27 26 28 29 31 32 31 32 29 27 24 25 25 25 23 22 21
27 26 25 28 28 28 28 27 27 29 29 29 31 30 28 24 26 27 28 24 23 22
24 26 31 30 29 28 25 24 25 26 26 27 28 28 27 25 27 28 30 26 25 24
28 28 26 25 24 20 20 20 22 23 25 25 25 25 24 24 26 30 29 28 30 28